Regional Weather Roundup
Issued by NWS

Home | Current Version | Previous Version | Graphics & Text | Print | Product List | Glossary On
Versions: 1 2 3 4 5 6 7 8 9 10 11 12 13 14 15 16 17 18 19 20 21 22 23 24 25 26 27 28 29 30 31 32 33 34 35 36 37 38 39 40 41 42 43 44 45 46 47 48 49 50
000
ASUS45 KABQ 040601
RWRNM
WEATHER ROUNDUP FOR NEW MEXICO
NATIONAL WEATHER SERVICE ALBUQUERQUE NM
1100 PM MST TUE MAR 03 2015

NOTE: "FAIR" MEANS FEW OR NO CLOUDS BELOW 12,000 FEET AGL WITH NO
       SIGNIFICANT WEATHER OR OBSTRUCTIONS TO VISION.

      THIS PRODUCT IS RELEASED AS TWO VERSIONS.  ONE VERSION NEAR
      THE TOP OF THE HOUR CONTAINING PRELIMINARY DATA FROM ALBUQUERQUE
      AND OTHER STATIONS.  A FINAL VERSION WITH ADDITIONAL DATA IS
      ISSUED ABOUT 10 MINUTES AFTER THE HOUR.

NMZ501-503-504-510>518-040700-
NORTHWEST PLATEAU/NORTHCENTRAL MOUNTAINS

CITY           SKY/WX    TMP DP  RH WIND       PRES   REMARKS
FARMINGTON     CLEAR     32  27  81 SW5       29.87S WCI  27
6HR MIN TEMP:  31; 6HR MAX TEMP:  43;

SANTA FE       CLEAR     33  19  56 N5        29.86R WCI  29
6HR MIN TEMP:  30; 6HR MAX TEMP:  47;

TAOS           CLOUDY    30  19  64 S5        29.86S WCI  25
ANGEL FIRE     CLOUDY    29  20  68 SW10G18   29.85F WCI  20

$$
NMZ402-403-502-505>509-040700-
WESTCENTRAL MOUNTAINS/SOUTHWEST MOUNTAINS

CITY           SKY/WX    TMP DP  RH WIND       PRES   REMARKS
GALLUP         CLOUDY    33  28  81 SW6       29.90S WCI  28
6HR MIN TEMP:  31; 6HR MAX TEMP:  40; 6HR PCP: TRACE;

GRANTS         PTCLDY    27  23  85 NW7       29.92R WCI  19
SILVER CITY    PTCLDY    37  27  65 N10       29.88F WCI  30

$$
NMZ407-409-411-412-040700-
SOUTHERN DESERTS

CITY           SKY/WX    TMP DP  RH WIND       PRES   REMARKS
DEMING         CLEAR     43  35  73 SW6       29.86S
6HR MIN TEMP:  41; 6HR MAX TEMP:  59;

HOLLOMAN AFB   CLOUDY    50  42  74 SW10      29.84R
ALAMOGORDO     MOCLDY    52  41  66 S12       29.86S
T OR C         CLEAR     42  26  53 SW6       29.85R
6HR MIN TEMP:  42; 6HR MAX TEMP:  60;


$$
NMZ519>523-040700-
CENTRAL VALLEYS/CENTRAL HIGHLANDS

CITY           SKY/WX    TMP DP  RH WIND       PRES   REMARKS
ALBUQUERQUE    PTCLDY    42  26  53 N10       29.89R
6HR MIN TEMP:  42; 6HR MAX TEMP:  55;

DOUBLE EAGLE   CLEAR     31  22  70 NW3       29.90R
CLINES CORNERS CLEAR     28  20  71 W10       29.86R WCI  19
6HR MIN TEMP:  28; 6HR MAX TEMP:  47;

BELEN          FAIR      34  24  67 W8        29.88S WCI  27
6HR MIN TEMP:  34; 6HR MAX TEMP:  60;

SOCORRO        NOT AVBL

$$
NMZ524>526-539-540-040700-
SOUTHCENTRAL MOUNTAINS

CITY           SKY/WX    TMP DP  RH WIND       PRES   REMARKS
RUIDOSO        NOT AVBL

$$
NMZ527>531-040700-
NORTHEAST HIGHLANDS/NORTHEAST PLAINS

CITY           SKY/WX    TMP DP  RH WIND       PRES   REMARKS
LAS VEGAS      PTCLDY    34  17  50 W7        29.83S WCI  28
6HR MIN TEMP:  30; 6HR MAX TEMP:  45;

RATON          CLEAR     27  24  89 N7        29.80R WCI  19
6HR MIN TEMP:  27; 6HR MAX TEMP:  49;

CLAYTON        FOG       27  26  96 N13       29.89R VSB 3/4 WCI  16
6HR MIN TEMP:  27; 6HR MAX TEMP:  36; 6HR PCP: TRACE;


$$
NMZ532>537-040700-
EASTCENTRAL PLAINS

CITY           SKY/WX    TMP DP  RH WIND       PRES   REMARKS
TUCUMCARI      MOCLDY    36  33  89 NE17G25   29.85R WCI  26
6HR MIN TEMP:  36; 6HR MAX TEMP:  58;

CANNON AFB     CLOUDY    46  42  87 W5        29.81S
6HR MIN TEMP:  45; 6HR MAX TEMP:  56;

CLOVIS AIRPORT CLOUDY    43  39  87 SW7       29.82S

$$
NMZ028-029-538-040700-
SOUTHEAST PLAINS

CITY           SKY/WX    TMP DP  RH WIND       PRES   REMARKS
ROSWELL        MOCLDY    47  41  80 S8        29.83S
6HR MIN TEMP:  47; 6HR MAX TEMP:  59;

ARTESIA        PTCLDY    50  48  93 S7        29.85S
CARLSBAD       CLOUDY    59  39  47 SW21G28   29.84S
6HR MIN TEMP:  53; 6HR MAX TEMP:  66; 6HR PCP: TRACE;

HOBBS          CLOUDY    50  50 100 S9        29.88S


$$



USA.gov is the U.S. government's official web portal to all federal, state and local government web resources and services.